EW0420 Weather Reports


Display with metric or nautical units.
time (UTC)temp
F
wind
direction
speed
MPH
gust
MPH
rain 1hr
in
rain 24hr
in
rain mn
in
humidity
%
barometer
mb
20260506192417 59 141 5.0 6.0 0.07 0.08 0.08 99 1011.6
20260506191914 59 131 5.0 8.0 0.00 0.07 0.07 99 1011.4
20260506191410 59 133 4.0 6.0 0.05 0.07 0.07 99 1011.6
20260506190908 59 161 4.0 6.0 0.07 0.06 0.06 99 1011.6
20260506190404 59 140 3.0 8.0 0.07 0.06 0.06 99 1011.7
20260506185901 59 135 3.0 5.0 0.05 0.05 0.05 99 1011.7
20260506185358 59 153 4.0 5.0 0.05 0.05 0.05 99 1011.5
20260506184855 59 131 4.0 7.0 0.07 0.04 0.04 98 1011.7
20260506184352 59 116 6.0 9.0 0.07 0.04 0.04 97 1011.7
20260506183849 60 147 5.0 8.0 0.07 0.03 0.03 96 1011.6
20260506183344 60 134 3.0 7.0 0.05 0.02 0.02 96 1011.9
20260506182842 60 148 3.0 9.0 0.05 0.02 0.02 94 1011.9
20260506182339 61 154 5.0 7.0 0.07 0.01 0.01 93 1012.0
20260506181836 62 187 6.0 7.0 0.07 0.01 0.01 91 1012.0
20260506181335 62 168 6.0 9.0 0.00 0.00 0.00 89 1012.2
20260506180831 63 140 4.0 7.0 0.00 0.00 0.00 88 1012.3
20260506180327 63 121 5.0 8.0 0.00 0.00 0.00 86 1012.4
20260506175823 64 136 5.0 11.0 0.00 0.00 0.00 84 1012.4
20260506175321 64 164 6.0 11.0 0.00 0.00 0.00 82 1012.6
20260506174818 64 147 7.0 13.0 0.00 0.00 0.00 81 1012.3
20260506174315 65 128 5.0 13.0 0.00 0.00 0.00 80 1012.5
20260506173812 66 139 7.0 11.0 0.00 0.00 0.00 78 1012.5
20260506173309 67 173 13.0 16.0 0.00 0.00 0.00 76 1012.8
20260506172806 68 119 6.0 7.0 0.00 0.00 0.00 73 1012.5
20260506172306 68 179 8.0 14.0 0.00 0.00 0.00 72 1012.5
20260506171800 69 126 6.0 9.0 0.00 0.00 0.00 70 1012.5
20260506171257 69 119 7.0 14.0 0.00 0.00 0.00 69 1012.4
20260506170755 69 131 5.0 11.0 0.00 0.00 0.00 69 1012.4
20260506170251 69 124 9.0 13.0 0.00 0.00 0.00 69 1012.3
20260506165750 69 127 7.0 15.0 0.00 0.00 0.00 69 1012.2
20260506165247 70 155 11.0 15.0 0.00 0.00 0.00 67 1012.2
20260506164744 70 119 11.0 15.0 0.00 0.00 0.00 66 1012.3
20260506164240 70 134 9.0 14.0 0.00 0.00 0.00 65 1012.3
20260506163737 71 189 11.0 15.0 0.00 0.00 0.00 65 1012.3
20260506163232 71 174 9.0 16.0 0.00 0.00 0.00 66 1012.3
20260506162728 70 158 14.0 22.0 0.00 0.00 0.00 65 1012.5
20260506162226 69 113 4.0 13.0 0.00 0.00 0.00 68 1012.5
20260506161723 69 176 10.0 16.0 0.00 0.00 0.00 68 1013.0
20260506161220 70 157 5.0 8.0 0.00 0.00 0.00 68 1012.8
20260506160718 70 153 6.0 9.0 0.00 0.00 0.00 68 1013.0
20260506160214 70 123 5.0 11.0 0.00 0.00 0.00 68 1012.9
20260506155713 70 179 11.0 13.0 0.00 0.00 0.00 67 1013.1
20260506155210 70 184 10.0 20.0 0.00 0.00 0.00 67 1013.1
20260506153312 70 128 12.0 18.0 0.00 0.00 0.00 67 1013.1
20260506152808 70 114 11.0 17.0 0.00 0.00 0.00 67 1013.1
20260506152306 70 103 7.0 13.0 0.00 0.00 0.00 68 1013.5
20260506151805 69 139 17.0 22.0 0.00 0.00 0.00 67 1013.3
20260506151301 70 148 6.0 13.0 0.00 0.00 0.00 68 1013.4
20260506150758 69 157 5.0 10.0 0.00 0.00 0.00 69 1013.7
20260506150303 69 173 4.0 18.0 0.00 0.00 0.00 69 1013.6
20260506145751 69 185 11.0 21.0 0.00 0.00 0.00 69 1013.7
20260506145248 69 133 10.0 15.0 0.00 0.00 0.00 70 1013.6
20260506144746 68 153 4.0 8.0 0.00 0.00 0.00 72 1013.7
20260506144242 68 167 10.0 11.0 0.00 0.00 0.00 73 1013.5
20260506143740 67 126 7.0 13.0 0.00 0.00 0.00 73 1013.6
20260506143237 67 153 7.0 9.0 0.00 0.00 0.00 74 1013.6
20260506142736 68 125 5.0 13.0 0.00 0.00 0.00 73 1013.8
20260506142233 67 84 12.0 16.0 0.00 0.00 0.00 74 1013.8
20260506141731 67 145 8.0 14.0 0.00 0.00 0.00 74 1013.9
20260506141229 67 172 8.0 15.0 0.00 0.00 0.00 75 1013.6
20260506140727 67 133 7.0 17.0 0.00 0.00 0.00 75 1013.8
20260506140223 67 182 3.0 14.0 0.00 0.00 0.00 76 1013.6
20260506135720 67 143 8.0 15.0 0.00 0.00 0.00 77 1013.7
20260506135216 66 117 8.0 17.0 0.00 0.00 0.00 78 1013.5
20260506134714 66 141 10.0 18.0 0.00 0.00 0.00 78 1013.8
20260506134209 66 149 5.0 11.0 0.00 0.00 0.00 79 1013.7
20260506133707 65 157 6.0 22.0 0.00 0.00 0.00 79 1013.8
20260506133203 65 96 7.0 16.0 0.00 0.00 0.00 80 1013.8
20260506132701 65 177 9.0 13.0 0.00 0.00 0.00 80 1013.8
20260506132157 64 161 5.0 11.0 0.00 0.00 0.00 82 1013.8
20260506131655 64 150 15.0 24.0 0.00 0.00 0.00 82 1014.1
20260506131151 63 142 12.0 21.0 0.00 0.00 0.00 83 1014.1
20260506130648 63 163 7.0 13.0 0.00 0.00 0.00 83 1014.6
20260506130145 63 143 7.0 11.0 0.00 0.00 0.00 84 1014.5
20260506125643 62 147 8.0 11.0 0.00 0.00 0.00 85 1014.3
20260506125141 62 166 6.0 8.0 0.00 0.00 0.00 86 1014.2
20260506124639 61 125 4.0 8.0 0.00 0.00 0.00 87 1014.3
20260506124136 62 122 5.0 13.0 0.00 0.00 0.00 87 1014.4
20260506123633 62 123 3.0 8.0 0.00 0.00 0.00 86 1014.1
20260506123132 62 132 3.0 10.0 0.00 0.00 0.00 86 1014.2
20260506122628 61 125 4.0 10.0 0.00 0.00 0.00 88 1014.3
20260506122126 61 141 6.0 10.0 0.00 0.00 0.00 87 1014.5
20260506121624 60 124 5.0 9.0 0.00 0.00 0.00 89 1014.3
20260506121120 60 166 11.0 13.0 0.00 0.00 0.00 89 1014.7
20260506120618 60 137 7.0 15.0 0.00 0.00 0.00 90 1014.5
20260506120115 60 138 4.0 10.0 0.00 0.00 0.00 90 1014.3
20260506115614 60 155 3.0 5.0 0.00 0.00 0.00 90 1014.6
20260506115112 59 112 1.0 6.0 0.00 0.00 0.00 91 1014.4
20260506114608 59 112 3.0 5.0 0.00 0.00 0.00 91 1014.3
20260506114107 59 106 0.0 7.0 0.00 0.00 0.00 92 1014.7
20260506113604 58 218 4.0 5.0 0.00 0.00 0.00 92 1014.6
20260506113101 58 134 1.0 5.0 0.00 0.00 0.00 93 1014.7
20260506112557 57 165 3.0 5.0 0.00 0.00 0.00 94 1014.7
20260506112055 57 139 2.0 5.0 0.00 0.00 0.00 94 1014.8
20260506111553 57 132 2.0 5.0 0.00 0.00 0.00 93 1014.8
20260506111050 58 123 3.0 5.0 0.00 0.00 0.00 93 1015.0
20260506110548 58 132 4.0 7.0 0.00 0.00 0.00 93 1015.1
20260506110045 57 141 4.0 7.0 0.00 0.00 0.00 94 1014.9
20260506105541 57 135 2.0 6.0 0.00 0.00 0.00 94 1014.8
20260506105038 57 148 3.0 7.0 0.00 0.00 0.00 94 1014.8
20260506104536 57 151 3.0 6.0 0.00 0.00 0.00 94 1014.8
20260506104034 57 128 5.0 7.0 0.00 0.00 0.00 94 1014.8
20260506103531 57 145 2.0 6.0 0.00 0.00 0.00 95 1014.6
20260506103027 56 132 3.0 5.0 0.00 0.00 0.00 95 1014.4
20260506102526 56 130 4.0 8.0 0.00 0.00 0.00 95 1014.7
20260506102023 56 130 2.0 3.0 0.00 0.00 0.00 95 1014.6
20260506101519 56 144 3.0 5.0 0.00 0.00 0.00 95 1014.8
20260506101016 56 97 1.0 3.0 0.00 0.00 0.00 95 1014.6
20260506100515 56 156 3.0 7.0 0.00 0.00 0.00 94 1014.6
20260506100013 56 163 3.0 6.0 0.00 0.00 0.00 94 1014.4
20260506095511 57 134 3.0 6.0 0.00 0.00 0.00 94 1014.6
20260506095007 57 141 3.0 5.0 0.00 0.00 0.00 94 1014.6
20260506094505 57 168 4.0 7.0 0.00 0.00 0.00 94 1014.5
20260506094002 57 156 4.0 7.0 0.00 0.00 0.00 93 1014.5
20260506093501 57 157 6.0 9.0 0.00 0.00 0.00 94 1014.5
20260506092958 57 153 3.0 8.0 0.00 0.00 0.00 94 1014.4
20260506092455 57 148 3.0 5.0 0.00 0.00 0.00 93 1014.4
20260506091952 57 140 4.0 6.0 0.00 0.00 0.00 93 1014.4
20260506091451 57 149 3.0 7.0 0.00 0.00 0.00 93 1014.1
20260506090947 57 180 5.0 7.0 0.00 0.00 0.00 93 1014.4
20260506090445 57 140 4.0 7.0 0.00 0.00 0.00 93 1014.6
20260506085941 57 132 3.0 6.0 0.00 0.00 0.00 92 1014.2
20260506085438 57 152 6.0 9.0 0.00 0.00 0.00 93 1014.5
20260506084934 57 178 4.0 5.0 0.00 0.00 0.00 93 1014.6
20260506084431 57 120 3.0 5.0 0.00 0.00 0.00 92 1014.5
20260506083927 57 166 3.0 6.0 0.00 0.00 0.00 92 1014.8
20260506083425 57 151 2.0 7.0 0.00 0.00 0.00 92 1014.6
20260506082922 57 149 4.0 6.0 0.00 0.00 0.00 92 1014.7
20260506082419 57 142 2.0 6.0 0.00 0.00 0.00 92 1014.6
20260506081915 57 133 3.0 8.0 0.00 0.00 0.00 91 1014.8
20260506081414 57 130 3.0 5.0 0.00 0.00 0.00 91 1014.7
20260506080910 57 142 3.0 10.0 0.00 0.00 0.00 91 1014.6
20260506080407 57 147 4.0 8.0 0.00 0.00 0.00 90 1014.7
20260506073351 58 144 2.0 8.0 0.00 0.00 0.00 88 1014.9
20260506072847 58 116 5.0 8.0 0.00 0.00 0.00 88 1014.8
20260506072345 59 165 4.0 7.0 0.00 0.00 0.00 88 1014.7
20260506071843 59 113 4.0 8.0 0.00 0.00 0.00 87 1014.6
20260506071341 59 151 4.0 8.0 0.00 0.00 0.00 87 1014.5
20260506070837 59 148 3.0 9.0 0.00 0.00 0.00 87 1014.4
20260506070334 59 166 4.0 7.0 0.00 0.00 0.00 87 1014.4
20260506062312 60 120 6.0 7.0 0.00 0.00 0.00 84 1014.3
20260506061808 60 128 5.0 9.0 0.00 0.00 0.00 84 1014.3
20260506061304 60 168 4.0 8.0 0.00 0.00 0.00 84 1014.4
20260506060803 60 168 6.0 7.0 0.00 0.00 0.00 83 1014.5
20260506060300 60 135 3.0 10.0 0.00 0.00 0.00 83 1014.3
20260506051232 61 107 5.0 9.0 0.00 0.00 0.00 79 1014.5
20260506050730 61 170 4.0 8.0 0.00 0.00 0.00 79 1014.6
20260506050227 62 144 3.0 8.0 0.00 0.00 0.00 79 1014.7
20260506044718 61 159 5.0 7.0 0.00 0.00 0.00 78 1014.8
20260506044215 61 145 5.0 7.0 0.00 0.00 0.00 78 1015.1
20260506043712 61 139 5.0 7.0 0.00 0.00 0.00 77 1014.8
20260506043210 61 165 6.0 9.0 0.00 0.00 0.00 77 1014.5
20260506042709 62 145 5.0 7.0 0.00 0.00 0.00 77 1014.8
20260506042207 61 176 5.0 7.0 0.00 0.00 0.00 77 1015.1
20260506041705 61 153 7.0 8.0 0.00 0.00 0.00 76 1014.8
20260506041201 61 168 3.0 7.0 0.00 0.00 0.00 76 1015.0
20260506040659 61 147 3.0 7.0 0.00 0.00 0.00 76 1014.9
20260506040155 61 156 4.0 6.0 0.00 0.00 0.00 77 1015.0
20260506035652 61 108 3.0 10.0 0.00 0.00 0.00 76 1014.8
20260506035149 61 147 4.0 6.0 0.00 0.00 0.00 76 1014.8
20260506034646 61 131 3.0 6.0 0.00 0.00 0.00 77 1014.9
20260506034143 61 173 5.0 6.0 0.00 0.00 0.00 77 1015.0
20260506033640 61 147 5.0 6.0 0.00 0.00 0.00 77 1015.0
20260506033137 61 143 2.0 6.0 0.00 0.00 0.00 77 1014.7
20260506032634 61 127 8.0 11.0 0.00 0.00 0.00 77 1014.8
20260506032131 61 142 3.0 5.0 0.00 0.00 0.00 77 1014.6
20260506031628 60 142 3.0 7.0 0.00 0.00 0.00 77 1014.7
20260506031125 60 143 3.0 6.0 0.00 0.00 0.00 78 1014.6
20260506030624 60 140 3.0 9.0 0.00 0.00 0.00 77 1014.6
20260506030121 60 152 4.0 5.0 0.00 0.00 0.00 78 1014.7
20260506025617 60 135 4.0 8.0 0.00 0.00 0.00 77 1014.8
20260506025113 60 139 2.0 5.0 0.00 0.00 0.00 78 1014.9
20260506024611 60 141 2.0 6.0 0.00 0.00 0.00 78 1014.7
20260506024107 60 139 3.0 5.0 0.00 0.00 0.00 78 1014.7
20260506023603 60 78 5.0 8.0 0.00 0.00 0.00 78 1014.8
20260506023101 60 139 4.0 6.0 0.00 0.00 0.00 78 1014.7
20260506022558 60 126 3.0 6.0 0.00 0.00 0.00 77 1014.7
20260506022055 60 142 5.0 6.0 0.00 0.00 0.00 77 1014.6
20260506021553 60 120 3.0 6.0 0.00 0.00 0.00 77 1014.8
20260506021050 60 87 5.0 8.0 0.00 0.00 0.00 77 1014.9
20260506020547 60 133 6.0 8.0 0.00 0.00 0.00 76 1014.9
20260506020044 60 157 3.0 6.0 0.00 0.00 0.00 77 1014.8
20260506015542 60 112 3.0 7.0 0.00 0.00 0.00 76 1014.8
20260506015039 60 131 5.0 8.0 0.00 0.00 0.00 75 1014.8
20260506014536 61 120 3.0 5.0 0.00 0.00 0.00 75 1014.5
20260506014032 61 124 2.0 8.0 0.00 0.00 0.00 75 1014.7
20260506013531 61 157 4.0 7.0 0.00 0.00 0.00 74 1014.6
20260506013026 61 116 5.0 7.0 0.00 0.00 0.00 74 1014.4
20260506012523 61 134 3.0 5.0 0.00 0.00 0.00 74 1014.2
20260506012020 62 125 4.0 6.0 0.00 0.00 0.00 74 1014.4
20260506011517 62 141 3.0 7.0 0.00 0.00 0.00 73 1014.2
20260506011013 62 155 4.0 7.0 0.00 0.00 0.00 73 1014.3
20260506010508 62 125 3.0 6.0 0.00 0.00 0.00 73 1014.3
20260506010004 62 151 3.0 7.0 0.00 0.00 0.00 73 1013.9
20260506005501 62 138 4.0 5.0 0.00 0.00 0.00 73 1014.0
20260506004956 62 163 4.0 9.0 0.00 0.00 0.00 72 1013.9
20260506004454 62 125 4.0 6.0 0.00 0.00 0.00 72 1013.9
20260506003950 63 134 4.0 9.0 0.00 0.00 0.00 71 1013.7
20260506003446 63 155 4.0 7.0 0.00 0.00 0.00 72 1013.9
20260506002943 63 172 3.0 8.0 0.00 0.00 0.00 71 1014.0
20260506002439 64 125 2.0 7.0 0.00 0.00 0.00 71 1013.7
20260506001934 64 117 4.0 6.0 0.00 0.00 0.00 71 1013.7
20260506001432 64 160 3.0 5.0 0.00 0.00 0.00 70 1013.5
20260506000929 64 141 4.0 6.0 0.00 0.00 0.00 69 1013.4
20260506000427 65 88 4.0 9.0 0.00 0.00 0.00 68 1013.3
20260505235923 65 128 5.0 9.0 0.00 0.00 0.00 67 1013.1
20260505235421 66 179 3.0 8.0 0.00 0.00 0.00 67 1013.1
20260505234918 66 157 5.0 10.0 0.00 0.00 0.00 66 1013.1
20260505234415 66 172 4.0 6.0 0.00 0.00 0.00 65 1013.1
20260505233912 67 147 6.0 9.0 0.00 0.00 0.00 64 1012.8
20260505233410 67 143 5.0 11.0 0.00 0.00 0.00 63 1012.6
20260505232907 68 177 5.0 8.0 0.00 0.00 0.00 64 1012.5
20260505232405 68 154 6.0 13.0 0.00 0.00 0.00 62 1012.7
20260505231901 68 150 6.0 10.0 0.00 0.00 0.00 62 1012.3
20260505231359 68 186 5.0 8.0 0.00 0.00 0.00 61 1012.6
20260505230857 68 161 6.0 9.0 0.00 0.00 0.00 62 1012.6
20260505230354 69 144 3.0 6.0 0.00 0.00 0.00 62 1012.3
20260505225851 69 133 3.0 8.0 0.00 0.00 0.00 61 1012.3
20260505225348 69 121 5.0 7.0 0.00 0.00 0.00 60 1012.4
20260505224843 69 124 7.0 8.0 0.00 0.00 0.00 59 1012.2
20260505224341 70 135 3.0 9.0 0.00 0.00 0.00 59 1012.1
20260505223838 70 147 5.0 8.0 0.00 0.00 0.00 58 1012.1
20260505223335 71 117 5.0 13.0 0.00 0.00 0.00 57 1011.7
20260505222830 71 131 7.0 11.0 0.00 0.00 0.00 57 1011.8
20260505222327 71 146 5.0 13.0 0.00 0.00 0.00 58 1011.6
20260505221824 71 138 4.0 9.0 0.00 0.00 0.00 57 1011.5
20260505221321 71 166 5.0 9.0 0.00 0.00 0.00 57 1011.5
20260505220818 72 169 8.0 13.0 0.00 0.00 0.00 56 1011.5
20260505220315 72 137 3.0 11.0 0.00 0.00 0.00 57 1011.7
20260505215813 72 119 5.0 9.0 0.00 0.00 0.00 57 1011.8
20260505215310 72 106 5.0 7.0 0.00 0.00 0.00 56 1011.8
20260505214808 72 152 5.0 9.0 0.00 0.00 0.00 57 1011.6
20260505214306 72 116 4.0 6.0 0.00 0.00 0.00 57 1011.4
20260505213802 72 111 4.0 8.0 0.00 0.00 0.00 58 1011.8
20260505213300 72 144 5.0 13.0 0.00 0.00 0.00 57 1011.7
20260505212755 73 144 5.0 9.0 0.00 0.00 0.00 56 1011.7
20260505212253 73 94 7.0 9.0 0.00 0.00 0.00 55 1011.6
20260505211750 74 153 6.0 13.0 0.00 0.00 0.00 55 1011.4
20260505211248 74 166 6.0 13.0 0.00 0.00 0.00 55 1011.3
20260505210743 75 179 5.0 13.0 0.00 0.00 0.00 55 1011.2
20260505210241 75 115 5.0 9.0 0.00 0.00 0.00 54 1011.2
20260505205737 75 114 5.0 9.0 0.00 0.00 0.00 54 1011.2
20260505205236 75 106 5.0 10.0 0.00 0.00 0.00 54 1011.2
20260505204732 75 134 5.0 13.0 0.00 0.00 0.00 53 1011.4
20260505204230 75 90 7.0 14.0 0.00 0.00 0.00 52 1011.5
20260505203726 75 126 5.0 16.0 0.00 0.00 0.00 53 1011.2
20260505203224 76 190 8.0 11.0 0.00 0.00 0.00 51 1011.1
20260505202719 77 178 8.0 13.0 0.00 0.00 0.00 51 1011.4
20260505202216 77 123 3.0 8.0 0.00 0.00 0.00 51 1011.3
20260505201712 77 104 4.0 15.0 0.00 0.00 0.00 50 1011.4
20260505201210 78 145 4.0 11.0 0.00 0.00 0.00 49 1011.0
20260505200708 78 126 4.0 9.0 0.00 0.00 0.00 49 1011.3
20260505200205 78 158 7.0 15.0 0.00 0.00 0.00 50 1011.6
20260505195700 78 119 4.0 10.0 0.00 0.00 0.00 48 1011.1
20260505195157 79 107 7.0 15.0 0.00 0.00 0.00 48 1011.4
20260505194655 80 125 5.0 8.0 0.00 0.00 0.00 47 1011.2
20260505194151 79 175 11.0 14.0 0.00 0.00 0.00 45 1011.2
20260505193648 79 166 8.0 10.0 0.00 0.00 0.00 45 1011.3
20260505193145 80 148 6.0 11.0 0.00 0.00 0.00 46 1011.2
20260505192643 80 174 8.0 11.0 0.00 0.00 0.00 46 1011.0